Location: Plum
(40.5000°N, 79.7500°W)
Time: 18:24:04
(UTC-04:00)

MOZ.5/SAFIR/RUBIN 5/SL-8 - Visible Passes

Search period start: 20 August 2014 00:00
Search period end: 30 August 2014 00:00
Orbit: 680 x 709 km, 97.8° (Epoch: 20 August)

Date Brightness Start Highest point End Pass type
(mag) Time Alt. Az. Time Alt. Az. Time Alt. Az.
20 Aug 7.1 05:31:15 10° ESE 05:34:08 16° ENE 05:37:02 10° NNE visible
20 Aug 6.8 20:43:41 10° NNW 20:47:12 22° WNW 20:50:41 10° WSW visible
22 Aug 7.6 05:16:06 10° ENE 05:17:29 11° ENE 05:18:52 10° NE visible
23 Aug 6.4 05:53:27 10° SE 05:57:24 27° ENE 06:01:22 10° NNE visible
23 Aug 7.4 21:08:23 10° NW 21:10:24 13° WNW 21:12:25 10° W visible
25 Aug 7.0 05:37:24 10° ESE 05:40:41 19° ENE 05:43:58 10° NNE visible
25 Aug 7.0 20:50:34 10° NNW 20:53:44 18° WNW 20:56:52 10° WSW visible
27 Aug 7.3 05:21:49 10° E 05:24:01 13° ENE 05:26:12 10° NE visible
27 Aug 6.4 20:33:10 10° NNW 20:37:00 26° WNW 20:40:49 10° WSW visible
28 Aug 6.0 05:59:48 10° SE 06:03:58 31° ENE 06:08:08 10° N visible
28 Aug 7.6 21:15:54 10° NW 21:16:54 11° WNW 21:17:55 10° WNW visible
29 Aug 5.6 20:15:57 10° N 20:20:14 37° WNW 20:24:29 10° SW visible
